Date String (YYYY-MM-DD hh:mm:ss) UTC,Instrument flags,Ambient pressure (hPa),Sample flow (lpm),Bypass flow (lpm),Sample temperature (°C),Ambient temperature (°C),ASC tube jacket temperature (°C),LED temperature (°C),Box temperature (°C),Sample RH (%),Span deviation,Mass concentration (μg/m³),Mass concentration (μg/m³),Mass concentration (μg/m³)
DateTimeUTC,F1_M11,P_M11,Q1_M11,Q2_M11,T1_M11,T2_M11,T3_M11,T4_M11,T5_M11,U1_M11,ZSPAN_M11,X0_M11,X2_M11,X1_M11
2022-01-10 11:00:00,,0839.0,5.00,0.00,22.4,21.5,00.0,31.4,24.1,06.1,0000.0,0002.23,0000.63,0000.48
2022-01-10 11:01:00,,0839.0,4.99,0.00,22.4,21.5,00.0,31.4,24.1,06.0,0000.0,0002.20,0000.61,0000.49
2022-01-10 11:02:00,,0839.0,5.00,0.00,22.3,21.5,00.0,31.4,24.0,06.0,0000.0,0002.21,0000.63,0000.50
2022-01-10 11:03:00,,0839.0,5.00,0.00,22.3,21.5,00.0,31.4,24.0,06.1,0000.0,0002.24,0000.64,0000.51
2022-01-10 11:04:00,,0839.0,5.00,0.00,22.3,21.5,00.0,31.4,23.9,06.1,0000.0,0002.25,0000.64,0000.51
2022-01-10 11:05:00,,0839.0,4.99,0.00,22.3,21.6,00.0,31.4,23.9,06.1,0000.0,0002.20,0000.61,0000.49
2022-01-10 11:06:00,,0839.0,5.02,0.00,22.3,22.2,00.0,31.4,24.1,06.2,0000.0,0001.43,0000.59,0000.47
2022-01-10 11:07:00,,0839.0,4.99,0.00,22.5,23.0,00.0,31.4,24.4,06.0,0000.0,0000.87,0000.59,0000.48
2022-01-10 11:08:00,,0839.0,5.01,0.00,22.6,23.2,00.0,31.5,24.5,05.8,0000.0,0000.95,0000.62,0000.49
2022-01-10 11:09:00,,0839.0,5.00,0.00,22.6,23.0,00.0,31.5,24.5,05.7,0000.0,0000.94,0000.61,0000.48
2022-01-10 11:10:00,,0839.0,4.99,0.00,22.6,22.7,00.0,31.5,24.5,05.7,0000.0,0000.91,0000.60,0000.48
2022-01-10 11:11:00,,0839.0,4.99,0.00,22.6,22.6,00.0,31.5,24.4,05.7,0000.0,0000.87,0000.57,0000.47
2022-01-10 11:12:00,,0839.0,5.01,0.00,22.6,22.4,00.0,31.5,24.3,05.7,0000.0,0000.87,0000.57,0000.46
2022-01-10 11:13:00,,0839.0,4.99,0.00,22.6,22.3,00.0,31.5,24.3,05.7,0000.0,0000.87,0000.56,0000.45
2022-01-10 11:14:00,,0839.1,5.00,0.00,22.6,22.1,00.0,31.5,24.3,05.7,0000.0,0000.91,0000.56,0000.44
2022-01-10 11:15:00,,0839.0,4.99,0.00,22.6,22.1,00.0,31.5,24.3,05.7,0000.0,0000.87,0000.55,0000.44
2022-01-10 11:16:00,,0839.1,5.00,0.00,22.6,22.0,00.0,31.5,24.3,05.6,0000.0,0000.92,0000.57,0000.45
2022-01-10 11:17:00,,0839.1,4.99,0.00,22.6,22.0,00.0,31.5,24.3,05.7,0000.0,0001.68,0000.57,0000.45
2022-01-10 11:18:00,,0839.1,5.00,0.00,22.5,21.9,00.0,31.5,24.3,05.8,0000.0,0001.68,0000.56,0000.45
2022-01-10 11:19:00,,0839.0,5.01,0.00,22.5,21.9,00.0,31.5,24.2,05.8,0000.0,0001.69,0000.57,0000.44
2022-01-10 11:20:00,,0839.0,4.99,0.00,22.5,21.8,00.0,31.5,24.2,05.8,0000.0,0002.17,0000.60,0000.45
2022-01-10 11:21:00,,0839.0,4.98,0.00,22.4,21.7,00.0,31.5,24.1,05.8,0000.0,0002.46,0000.62,0000.45
2022-01-10 11:22:00,,0839.0,5.01,0.00,22.4,21.6,00.0,31.5,24.0,05.7,0000.0,0002.61,0000.68,0000.47
2022-01-10 11:23:00,,0839.0,5.00,0.00,22.3,21.5,00.0,31.4,23.9,05.8,0000.0,0002.65,0000.68,0000.47
2022-01-10 11:24:00,,0839.0,4.99,0.00,22.3,21.4,00.0,31.4,23.9,05.8,0000.0,0002.60,0000.66,0000.45
2022-01-10 11:25:00,,0839.0,5.01,0.00,22.2,21.4,00.0,31.4,23.8,05.8,0000.0,0002.54,0000.64,0000.46
2022-01-10 11:26:00,,0839.0,4.98,0.00,22.2,21.4,00.0,31.4,23.8,05.8,0000.0,0002.54,0000.65,0000.46
2022-01-10 11:27:00,,0839.0,5.01,0.00,22.2,21.3,00.0,31.4,23.8,05.9,0000.0,0002.40,0000.63,0000.47
2022-01-10 11:28:00,,0839.0,5.00,0.00,22.2,21.3,00.0,31.3,23.8,06.0,0000.0,0001.62,0000.61,0000.46
2022-01-10 11:29:00,,0839.0,4.99,0.00,22.2,21.5,00.0,31.3,23.9,06.0,0000.0,0001.62,0000.60,0000.45
2022-01-10 11:30:00,,0839.0,5.00,0.00,22.3,22.2,00.0,31.3,24.0,06.0,0000.0,0001.53,0000.56,0000.44
2022-01-10 11:31:00,,0839.0,5.01,0.00,22.4,22.9,00.0,31.4,24.3,06.0,0000.0,0001.02,0000.53,0000.43
2022-01-10 11:32:00,,0839.0,4.99,0.00,22.5,23.1,00.0,31.4,24.4,06.0,0000.0,0000.78,0000.50,0000.42
2022-01-10 11:33:00,,0839.0,4.99,0.00,22.5,22.9,00.0,31.4,24.4,06.0,0000.0,0000.63,0000.45,0000.40
2022-01-10 11:34:00,,0839.0,4.99,0.00,22.6,22.6,00.0,31.4,24.4,06.1,0000.0,0000.58,0000.44,0000.40
2022-01-10 11:35:00,,0839.0,4.99,0.00,22.5,22.4,00.0,31.4,24.3,06.1,0000.0,0000.60,0000.45,0000.41
2022-01-10 11:36:00,,0839.0,5.00,0.00,22.5,22.3,00.0,31.4,24.2,06.1,0000.0,0000.64,0000.46,0000.40
2022-01-10 11:37:00,,0839.0,5.01,0.00,22.5,22.1,00.0,31.4,24.1,06.1,0000.0,0000.71,0000.49,0000.41
2022-01-10 11:38:00,,0839.0,4.99,0.00,22.4,21.9,00.0,31.4,24.0,06.2,0000.0,0000.72,0000.49,0000.41
2022-01-10 11:39:00,,0839.0,5.01,0.00,22.4,21.8,00.0,31.4,24.0,06.2,0000.0,0000.74,0000.50,0000.42
2022-01-10 11:40:00,,0839.0,4.98,0.00,22.3,21.6,00.0,31.4,23.9,06.2,0000.0,0000.74,0000.51,0000.43
2022-01-10 11:41:00,,0839.0,5.02,0.00,22.2,21.5,00.0,31.4,23.8,06.3,0000.0,0000.76,0000.52,0000.44
2022-01-10 11:42:00,,0839.0,4.99,0.00,22.2,21.4,00.0,31.3,23.7,06.3,0000.0,0000.79,0000.55,0000.45
2022-01-10 11:43:00,,0839.0,4.99,0.00,22.1,21.3,00.0,31.3,23.7,06.4,0000.0,0000.86,0000.58,0000.47
2022-01-10 11:44:00,,0839.0,5.01,0.00,22.1,21.3,00.0,31.3,23.7,06.4,0000.0,0000.90,0000.61,0000.49
2022-01-10 11:45:00,,0839.0,5.00,0.00,22.1,21.2,00.0,31.3,23.7,06.3,0000.0,0000.96,0000.65,0000.51
2022-01-10 11:46:00,,0839.0,4.99,0.00,22.0,21.2,00.0,31.2,23.6,06.2,0000.0,0000.97,0000.66,0000.52
2022-01-10 11:47:00,,0838.9,4.99,0.00,22.0,21.1,00.0,31.2,23.5,06.1,0000.0,0000.94,0000.66,0000.53
2022-01-10 11:48:00,,0838.9,5.00,0.00,21.9,21.1,00.0,31.2,23.4,06.2,0000.0,0000.91,0000.65,0000.53
2022-01-10 11:49:00,,0839.0,5.01,0.00,22.0,21.6,00.0,31.2,23.6,06.3,0000.0,0000.90,0000.65,0000.54
2022-01-10 11:50:00,,0839.0,5.01,0.00,22.1,22.4,00.0,31.2,23.9,06.2,0000.0,0000.89,0000.65,0000.54
2022-01-10 11:51:00,,0839.0,4.99,0.00,22.2,22.8,00.0,31.2,24.1,06.2,0000.0,0000.93,0000.66,0000.53
2022-01-10 11:52:00,,0839.0,5.00,0.00,22.2,22.5,00.0,31.2,24.0,06.2,0000.0,0000.92,0000.65,0000.52
2022-01-10 11:53:00,,0839.0,5.00,0.00,22.2,22.2,00.0,31.2,23.9,06.3,0000.0,0000.87,0000.63,0000.52
2022-01-10 11:54:00,,0838.9,5.01,0.00,22.2,22.0,00.0,31.2,23.8,06.4,0000.0,0000.85,0000.62,0000.52
2022-01-10 11:55:00,,0838.9,5.00,0.00,22.1,21.8,00.0,31.2,23.8,06.5,0000.0,0000.87,0000.63,0000.51
2022-01-10 11:56:00,,0838.9,5.00,0.00,22.1,21.6,00.0,31.2,23.7,06.4,0000.0,0000.86,0000.62,0000.52
2022-01-10 11:57:00,,0838.9,5.01,0.00,22.1,21.4,00.0,31.2,23.6,06.4,0000.0,0000.86,0000.62,0000.52
2022-01-10 11:58:00,,0838.9,5.00,0.00,22.0,21.3,00.0,31.2,23.6,06.3,0000.0,0000.89,0000.63,0000.52
2022-01-10 11:59:00,,0838.8,4.99,0.00,22.0,21.2,00.0,31.1,23.5,06.4,0000.0,0000.91,0000.63,0000.51
